Location: Coed Ely
(51.5661°N, 3.4150°W)
Time: 19:43:10
(UTC+00:00)

Meteor 2-14 Rocket - Pass Details

Date: 28 January 2021
Orbit: 938 x 955 km, 82.5° (Epoch: 27 February)

Event Time Altitude Azimuth Distance (km) Brightness Sun altitude
Rises 19:40:19 0° 183° (S) 3,590 7.5 -25.4°
Reaches altitude 10° 19:42:47 10° 182° (S) 2,652 6.8 -25.7°
Maximum altitude 19:48:50 78° 97° (E) 971 4.2 -26.7°
Drops below altitude 10° 19:54:57 10° 13° (NNE) 2,681 6.7 -27.6°
Sets 19:57:27 0° 12° (NNE) 3,633 7.4 -28.0°
